| time (UTC) | temp F | wind direction | speed MPH | gust MPH | rain 1hr in | rain 24hr in | rain mn in | humidity % | barometer mb |
| 20260906234654 | 93 | 174 | 7.0 | 12.0 | 0.00 | 0.15 | 0.15 | 30 | 1014.3 |
| 20260906232652 | 93 | 194 | 8.0 | 17.0 | 0.00 | 0.15 | 0.15 | 31 | 1014.3 |
| 20260906231645 | 94 | 161 | 8.0 | 15.0 | 0.00 | 0.15 | 0.15 | 33 | 1014.2 |
| 20260906225657 | 94 | 130 | 5.0 | 8.0 | 0.00 | 0.15 | 0.15 | 29 | 1014.4 |
| 20260906224647 | 93 | 68 | 1.0 | 4.0 | 0.00 | 0.15 | 0.15 | 33 | 1014.4 |
| 20260906223647 | 92 | 302 | 2.0 | 3.0 | 0.00 | 0.15 | 0.15 | 32 | 1014.4 |
| 20260906222645 | 91 | 306 | 0.0 | 3.0 | 0.00 | 0.15 | 0.15 | 33 | 1014.5 |
| 20260906221650 | 90 | 315 | 1.0 | 2.0 | 0.00 | 0.15 | 0.15 | 35 | 1014.5 |
| 20260906220644 | 89 | 296 | 0.0 | 2.0 | 0.00 | 0.15 | 0.15 | 37 | 1014.6 |
| 20260906214637 | 87 | 291 | 1.0 | 4.0 | 0.00 | 0.15 | 0.15 | 41 | 1014.7 |
| 20260906213648 | 86 | 349 | 2.0 | 7.0 | 0.00 | 0.15 | 0.15 | 42 | 1014.9 |
| 20260906212644 | 85 | 355 | 2.0 | 3.0 | 0.00 | 0.15 | 0.15 | 50 | 1015.2 |
| 20260906211642 | 84 | 244 | 2.0 | 4.0 | 0.00 | 0.15 | 0.15 | 50 | 1015.3 |
| 20260906205640 | 82 | 253 | 3.0 | 5.0 | 0.00 | 0.15 | 0.15 | 54 | 1015.6 |
| 20260906204636 | 82 | 224 | 4.0 | 10.0 | 0.04 | 0.15 | 0.15 | 56 | 1015.6 |
| 20260906203642 | 81 | 239 | 8.0 | 12.0 | 0.15 | 0.15 | 0.15 | 55 | 1015.7 |
| 20260906202655 | 80 | 246 | 7.0 | 14.0 | 0.15 | 0.15 | 0.15 | 56 | 1016.0 |
| 20260906201647 | 79 | 209 | 5.0 | 11.0 | 0.15 | 0.15 | 0.15 | 59 | 1015.9 |
| 20260906200638 | 77 | 192 | 9.0 | 27.0 | 0.15 | 0.15 | 0.15 | 59 | 1015.8 |
| 20260906195652 | 77 | 190 | 16.0 | 29.0 | 0.15 | 0.15 | 0.15 | 62 | 1017.3 |
| 20260906194649 | 87 | 179 | 16.0 | 25.0 | 0.11 | 0.11 | 0.11 | 50 | 1017.0 |
| 20260906193642 | 90 | 345 | 1.0 | 14.0 | 0.00 | 0.00 | 0.00 | 35 | 1015.9 |
| 20260906192633 | 91 | 300 | 2.0 | 9.0 | 0.00 | 0.00 | 0.00 | 34 | 1016.0 |
| 20260906190650 | 91 | 245 | 4.0 | 10.0 | 0.00 | 0.00 | 0.00 | 33 | 1016.3 |
| 20260906185642 | 92 | 189 | 3.0 | 12.0 | 0.00 | 0.00 | 0.00 | 32 | 1016.5 |
| 20260906184651 | 93 | 66 | 3.0 | 8.0 | 0.00 | 0.00 | 0.00 | 32 | 1016.6 |
| 20260906183648 | 93 | 201 | 3.0 | 12.0 | 0.00 | 0.00 | 0.00 | 31 | 1016.8 |
| 20260906181637 | 93 | 275 | 6.0 | 10.0 | 0.00 | 0.00 | 0.00 | 33 | 1017.2 |
| 20260906175644 | 92 | 282 | 3.0 | 11.0 | 0.00 | 0.00 | 0.00 | 33 | 1017.6 |
| 20260906174637 | 93 | 246 | 8.0 | 12.0 | 0.00 | 0.00 | 0.00 | 32 | 1017.7 |
| 20260906173634 | 93 | 281 | 4.0 | 8.0 | 0.00 | 0.00 | 0.00 | 32 | 1017.8 |
| 20260906172650 | 93 | 229 | 5.0 | 12.0 | 0.00 | 0.00 | 0.00 | 32 | 1017.9 |
| 20260906170634 | 94 | 349 | 2.0 | 4.0 | 0.00 | 0.00 | 0.00 | 29 | 1018.1 |
| 20260906164645 | 94 | 233 | 3.0 | 7.0 | 0.00 | 0.00 | 0.00 | 30 | 1018.1 |
| 20260906163640 | 93 | 15 | 1.0 | 4.0 | 0.00 | 0.00 | 0.00 | 31 | 1018.1 |
| 20260906162632 | 92 | 190 | 3.0 | 5.0 | 0.00 | 0.00 | 0.00 | 32 | 1018.2 |
| 20260906161643 | 92 | 270 | 2.0 | 6.0 | 0.00 | 0.00 | 0.00 | 32 | 1018.1 |
| 20260906160635 | 92 | 180 | 4.0 | 6.0 | 0.00 | 0.00 | 0.00 | 32 | 1018.1 |
| 20260906155647 | 91 | 49 | 1.0 | 6.0 | 0.00 | 0.00 | 0.00 | 33 | 1018.0 |
| 20260906153630 | 90 | 77 | 4.0 | 6.0 | 0.00 | 0.00 | 0.00 | 35 | 1018.1 |
| 20260906152723 | 89 | 121 | 2.0 | 6.0 | 0.00 | 0.00 | 0.00 | 35 | 1018.2 |
| 20260906150646 | 88 | 34 | 3.0 | 4.0 | 0.00 | 0.00 | 0.00 | 38 | 1018.2 |
| 20260906145638 | 87 | 24 | 3.0 | 4.0 | 0.00 | 0.00 | 0.00 | 39 | 1018.3 |
| 20260906144647 | 86 | 5 | 1.0 | 4.0 | 0.00 | 0.00 | 0.00 | 40 | 1018.1 |
| 20260906143638 | 85 | 73 | 1.0 | 5.0 | 0.00 | 0.00 | 0.00 | 42 | 1018.3 |
| 20260906141642 | 82 | 60 | 1.0 | 4.0 | 0.00 | 0.00 | 0.00 | 47 | 1018.3 |
| 20260906140637 | 80 | 60 | 1.0 | 2.0 | 0.00 | 0.00 | 0.00 | 49 | 1018.2 |
| 20260906135644 | 78 | 5 | 0.0 | 3.0 | 0.00 | 0.00 | 0.00 | 52 | 1018.1 |
| 20260906134642 | 77 | 9 | 0.0 | 2.0 | 0.00 | 0.00 | 0.00 | 53 | 1018.1 |
| 20260906133641 | 76 | 9 | 0.0 | 2.0 | 0.00 | 0.00 | 0.00 | 54 | 1018.0 |
| 20260906132634 | 75 | 9 | 1.0 | 3.0 | 0.00 | 0.00 | 0.00 | 55 | 1018.0 |
| 20260906131630 | 75 | 9 | 0.0 | 2.0 | 0.00 | 0.00 | 0.00 | 56 | 1018.1 |
| 20260906130638 | 75 | 9 | 0.0 | 1.0 | 0.00 | 0.00 | 0.00 | 55 | 1018.0 |
| 20260906123629 | 75 | 86 | 0.0 | 2.0 | 0.00 | 0.00 | 0.00 | 55 | 1017.8 |
| 20260906122643 | 75 | 79 | 0.0 | 4.0 | 0.00 | 0.00 | 0.00 | 56 | 1017.7 |
| 20260906121629 | 74 | 48 | 3.0 | 4.0 | 0.00 | 0.00 | 0.00 | 56 | 1017.7 |
| 20260906115642 | 75 | 71 | 2.0 | 3.0 | 0.00 | 0.00 | 0.00 | 54 | 1017.9 |
| 20260906114638 | 75 | 69 | 2.0 | 3.0 | 0.00 | 0.00 | 0.00 | 53 | 1017.8 |
| 20260906113631 | 75 | 27 | 0.0 | 1.0 | 0.00 | 0.00 | 0.00 | 54 | 1017.9 |
| 20260906112630 | 75 | 27 | 0.0 | 2.0 | 0.00 | 0.00 | 0.00 | 54 | 1017.7 |
| 20260906110637 | 75 | 18 | 2.0 | 4.0 | 0.00 | 0.00 | 0.00 | 53 | 1017.6 |
| 20260906105630 | 76 | 333 | 2.0 | 2.0 | 0.00 | 0.00 | 0.00 | 52 | 1017.4 |
| 20260906104627 | 76 | 333 | 0.0 | 2.0 | 0.00 | 0.00 | 0.00 | 52 | 1017.4 |
| 20260906102635 | 77 | 340 | 3.0 | 4.0 | 0.00 | 0.00 | 0.00 | 50 | 1017.3 |
| 20260906101631 | 77 | 99 | 0.0 | 1.0 | 0.00 | 0.00 | 0.00 | 51 | 1017.1 |
| 20260906100624 | 77 | 100 | 0.0 | 2.0 | 0.00 | 0.00 | 0.00 | 51 | 1017.1 |
| 20260906095623 | 78 | 100 | 1.0 | 2.0 | 0.00 | 0.00 | 0.00 | 50 | 1016.9 |
| 20260906094633 | 78 | 98 | 1.0 | 3.0 | 0.00 | 0.00 | 0.00 | 49 | 1016.7 |
| 20260906093625 | 78 | 211 | 0.0 | 0.0 | 0.00 | 0.00 | 0.00 | 49 | 1016.9 |
| 20260906092624 | 79 | 211 | 0.0 | 0.0 | 0.00 | 0.00 | 0.00 | 48 | 1016.8 |
| 20260906090636 | 79 | 211 | 0.0 | 1.0 | 0.00 | 0.00 | 0.00 | 47 | 1016.8 |
| 20260906085630 | 79 | 212 | 2.0 | 4.0 | 0.00 | 0.00 | 0.00 | 47 | 1016.9 |
| 20260906084632 | 79 | 148 | 1.0 | 5.0 | 0.00 | 0.00 | 0.00 | 47 | 1016.7 |
| 20260906083624 | 79 | 161 | 3.0 | 6.0 | 0.00 | 0.00 | 0.00 | 48 | 1016.8 |
| 20260906082638 | 79 | 35 | 3.0 | 6.0 | 0.00 | 0.00 | 0.00 | 48 | 1017.1 |
| 20260906075629 | 78 | 35 | 1.0 | 4.0 | 0.00 | 0.00 | 0.00 | 47 | 1017.2 |
| 20260906074625 | 79 | 34 | 2.0 | 3.0 | 0.00 | 0.00 | 0.00 | 46 | 1017.3 |
| 20260906073638 | 79 | 32 | 1.0 | 3.0 | 0.00 | 0.00 | 0.00 | 46 | 1017.5 |
| 20260906072636 | 79 | 76 | 1.0 | 3.0 | 0.00 | 0.00 | 0.00 | 46 | 1017.4 |
| 20260906071622 | 79 | 95 | 2.0 | 3.0 | 0.00 | 0.00 | 0.00 | 45 | 1017.4 |
| 20260906070658 | 79 | 127 | 3.0 | 5.0 | 0.00 | 0.00 | 0.00 | 45 | 1017.6 |
| 20260906065659 | 79 | 92 | 0.0 | 0.0 | 0.00 | 0.00 | 0.00 | 44 | 1017.6 |
| 20260906064649 | 79 | 95 | 0.0 | 0.0 | 0.00 | 0.00 | 0.00 | 44 | 1017.6 |
| 20260906063706 | 80 | 360 | 0.0 | 0.0 | 0.00 | 0.00 | 0.00 | 44 | 1017.7 |
| 20260906062647 | 80 | 79 | 0.0 | 2.0 | 0.00 | 0.00 | 0.00 | 43 | 1017.6 |
| 20260906061702 | 80 | 360 | 0.0 | 2.0 | 0.00 | 0.00 | 0.00 | 43 | 1017.6 |
| 20260906060657 | 80 | 71 | 0.0 | 3.0 | 0.00 | 0.00 | 0.00 | 43 | 1017.0 |
| 20260906055649 | 80 | 74 | 2.0 | 3.0 | 0.00 | 0.00 | 0.00 | 43 | 1016.9 |
| 20260906053657 | 81 | 96 | 2.0 | 4.0 | 0.00 | 0.00 | 0.00 | 42 | 1017.0 |
| 20260906052654 | 82 | 126 | 1.0 | 4.0 | 0.00 | 0.00 | 0.00 | 41 | 1016.9 |
| 20260906051704 | 82 | 144 | 1.0 | 4.0 | 0.00 | 0.00 | 0.00 | 41 | 1016.7 |
| 20260906050657 | 82 | 126 | 0.0 | 2.0 | 0.00 | 0.00 | 0.00 | 41 | 1017.6 |
| 20260906045651 | 83 | 128 | 1.0 | 3.0 | 0.00 | 0.00 | 0.00 | 41 | 1017.5 |
| 20260906044702 | 83 | 133 | 2.0 | 3.0 | 0.00 | 0.00 | 0.00 | 40 | 1016.7 |
| 20260906043653 | 84 | 137 | 3.0 | 4.0 | 0.00 | 0.00 | 0.00 | 40 | 1016.8 |
| 20260906042703 | 84 | 90 | 1.0 | 3.0 | 0.00 | 0.00 | 0.00 | 39 | 1016.7 |
| 20260906041656 | 85 | 80 | 0.0 | 3.0 | 0.00 | 0.00 | 0.00 | 38 | 1016.8 |
| 20260906040652 | 85 | 74 | 1.0 | 3.0 | 0.00 | 0.00 | 0.00 | 38 | 1016.8 |
| 20260906034701 | 86 | 75 | 1.0 | 4.0 | 0.00 | 0.00 | 0.00 | 38 | 1016.7 |
| 20260906032643 | 86 | 27 | 2.0 | 7.0 | 0.00 | 0.00 | 0.00 | 38 | 1016.5 |
| 20260906031645 | 86 | 11 | 5.0 | 9.0 | 0.00 | 0.00 | 0.00 | 38 | 1016.3 |
| 20260906030653 | 86 | 52 | 4.0 | 11.0 | 0.00 | 0.00 | 0.00 | 37 | 1016.4 |
| 20260906025649 | 86 | 360 | 9.0 | 12.0 | 0.00 | 0.00 | 0.00 | 37 | 1016.3 |
| 20260906024659 | 87 | 360 | 3.0 | 9.0 | 0.00 | 0.00 | 0.00 | 36 | 1016.2 |
| 20260906023650 | 87 | 350 | 3.0 | 6.0 | 0.00 | 0.00 | 0.00 | 35 | 1016.0 |
| 20260906021655 | 87 | 37 | 5.0 | 10.0 | 0.00 | 0.00 | 0.00 | 35 | 1015.9 |
| 20260906020649 | 86 | 25 | 6.0 | 11.0 | 0.00 | 0.00 | 0.00 | 35 | 1015.8 |
| 20260906015642 | 87 | 25 | 9.0 | 14.0 | 0.00 | 0.00 | 0.00 | 35 | 1015.8 |
| 20260906013651 | 89 | 355 | 12.0 | 16.0 | 0.00 | 0.00 | 0.00 | 31 | 1015.4 |
| 20260906012656 | 90 | 5 | 11.0 | 18.0 | 0.00 | 0.00 | 0.00 | 30 | 1015.5 |
| 20260906011654 | 92 | 328 | 9.0 | 15.0 | 0.00 | 0.00 | 0.00 | 29 | 1015.4 |
| 20260906010649 | 93 | 66 | 3.0 | 8.0 | 0.00 | 0.00 | 0.00 | 28 | 1015.1 |
| 20260906005643 | 94 | 62 | 7.0 | 11.0 | 0.00 | 0.00 | 0.00 | 27 | 1015.2 |
| 20260906004652 | 94 | 76 | 4.0 | 8.0 | 0.00 | 0.00 | 0.00 | 27 | 1015.1 |
| 20260906003641 | 95 | 63 | 5.0 | 8.0 | 0.00 | 0.00 | 0.00 | 25 | 1015.0 |
| 20260906000649 | 97 | 290 | 1.0 | 7.0 | 0.00 | 0.00 | 0.00 | 24 | 1015.1 |